period_start,C,m1,H,J0,J1,J2,J3,J4,J5,JA,JB,JC,JD,JJ,JK,JN,#
2017-08-22 00:00:31,0.00,0.32,0.00,23.89,28.35,31.27,13.86,44.78,1012.71,2028.99,3382.90,3005.00,3421.00,600.22,592.10,22.77,0000 0000 0000 0000 000000
2017-08-22 00:05:32,0.01,0.32,0.00,23.90,28.35,31.27,13.82,44.68,1012.71,2028.99,3382.34,3005.00,3421.00,599.73,591.64,22.82,0000 0000 0000 0000 000000
2017-08-22 00:10:33,0.00,0.32,0.00,23.88,28.33,31.25,13.83,44.71,1012.71,2028.99,3382.03,3005.00,3420.98,599.74,591.79,22.87,0000 0000 0000 0000 000000
2017-08-22 00:15:34,0.00,0.32,0.00,23.87,28.32,31.27,13.83,44.80,1012.69,2028.99,3382.01,3005.00,3420.95,600.09,592.09,22.92,0000 0000 0000 0000 000000
2017-08-22 00:20:35,0.07,0.32,0.00,23.88,28.32,31.25,13.83,44.73,1012.57,2028.99,3380.14,3003.65,3419.42,600.02,591.91,22.97,0000 0000 0000 0000 000000
2017-08-22 00:25:37,0.87,0.36,0.00,23.88,28.32,31.25,13.80,44.75,1012.34,2028.99,3363.29,2991.80,3406.03,599.85,591.64,23.02,0000 0000 0000 0000 000000
2017-08-22 00:30:38,0.02,0.37,0.00,23.87,28.32,31.24,13.81,44.77,1012.26,2028.99,3361.84,2990.60,3404.99,599.95,591.72,23.07,0000 0000 0000 0000 000000
2017-08-22 00:35:39,0.02,0.37,0.00,23.87,28.31,31.25,13.83,44.79,1012.25,2029.00,3361.16,2990.17,3404.89,599.92,591.72,23.12,0000 0000 0000 0000 000000
2017-08-22 00:40:41,0.01,0.37,0.00,23.87,28.30,31.23,13.80,44.53,1012.23,2029.00,3361.02,2990.06,3404.45,600.11,591.87,23.17,0000 0000 0000 0000 000000
2017-08-22 00:45:42,0.09,0.37,0.00,23.87,28.30,31.23,13.85,44.75,1012.22,2029.00,3359.42,2989.08,3403.31,599.82,591.50,23.22,0000 0000 0000 0000 000000
2017-08-22 00:50:44,0.46,0.40,0.00,23.87,28.30,31.22,13.87,44.66,1012.22,2029.00,3348.83,2982.48,3396.31,600.14,591.97,23.27,0000 0000 0000 0000 000000
2017-08-22 00:55:45,0.01,0.40,0.00,23.87,28.30,31.23,13.95,44.75,1012.22,2029.00,3348.01,2982.02,3395.52,600.51,592.27,23.32,0000 0000 0000 0000 000000
2017-08-22 01:00:46,0.00,0.40,0.00,23.88,28.30,31.22,13.90,44.77,1012.22,2029.01,3348.00,2982.01,3395.36,600.11,591.93,23.37,0000 0000 0000 0000 000000
2017-08-22 01:05:48,0.00,0.40,0.00,23.89,28.29,31.21,13.87,44.70,1012.22,2029.01,3348.00,2982.00,3395.10,600.12,591.84,23.42,0000 0000 0000 0000 000000
2017-08-22 01:10:49,0.00,0.40,0.00,23.89,28.28,31.20,13.90,44.77,1012.22,2029.02,3347.99,2982.00,3395.12,600.16,591.80,23.47,0000 0000 0000 0000 000000
2017-08-22 01:15:50,0.00,0.40,0.00,23.90,28.27,31.21,13.86,44.68,1012.22,2029.02,3347.97,2982.00,3395.02,600.13,591.78,23.52,0000 0000 0000 0000 000000
2017-08-22 01:20:52,0.00,0.40,0.00,23.90,28.27,31.21,13.89,44.66,1012.22,2029.02,3347.93,2982.00,3395.00,600.07,591.88,23.57,0000 0000 0000 0000 000000
2017-08-22 01:25:53,0.00,0.40,0.00,23.90,28.27,31.22,13.82,44.72,1012.22,2029.04,3347.79,2982.00,3395.00,600.00,591.69,23.62,0000 0000 0000 0000 000000
2017-08-22 01:30:54,0.00,0.40,0.00,23.89,28.27,31.23,13.79,44.66,1012.22,2029.08,3347.59,2982.00,3395.01,599.87,591.59,23.67,0000 0000 0000 0000 000000
2017-08-22 01:35:56,0.01,0.40,0.00,23.90,28.27,31.21,13.83,44.72,1012.19,2029.11,3347.50,2982.00,3395.00,600.06,591.68,23.72,0000 0000 0000 0000 000000
2017-08-22 01:40:57,0.01,0.40,0.00,23.90,28.27,31.20,13.82,44.74,1012.20,2029.12,3347.10,2981.99,3395.00,600.13,591.63,23.77,0000 0000 0000 0000 000000
2017-08-22 01:45:58,0.04,0.41,0.00,23.90,28.27,31.20,13.84,44.61,1012.19,2029.16,3346.60,2981.54,3394.58,600.26,591.86,23.82,0000 0000 0000 0000 000000
2017-08-22 01:51:00,0.02,0.41,0.00,23.90,28.27,31.21,13.83,44.66,1012.17,2029.17,3345.96,2981.01,3394.01,600.14,591.80,23.87,0000 0000 0000 0000 000000
2017-08-22 01:56:01,0.03,0.41,0.00,23.90,28.27,31.21,13.78,44.83,1012.07,2029.26,3345.15,2980.86,3393.73,599.67,591.25,23.92,0000 0000 0000 0000 000000
2017-08-22 02:01:02,0.02,0.41,0.00,23.90,28.27,31.22,13.85,44.77,1011.87,2029.14,3344.89,2980.11,3393.04,600.14,591.57,23.97,0000 0000 0000 0000 000000
2017-08-22 02:06:04,0.03,0.41,0.00,23.90,28.26,31.21,13.83,44.74,1011.78,2029.23,3344.14,2980.01,3392.99,600.20,591.64,24.02,0000 0000 0000 0000 000000
2017-08-22 02:11:05,0.02,0.41,0.00,23.92,28.26,31.22,13.79,44.73,1011.77,2029.43,3343.98,2980.00,3392.89,599.61,590.97,24.07,0000 0000 0000 0000 000000
2017-08-22 02:16:07,0.06,0.41,0.00,23.92,28.27,31.20,13.85,44.77,1011.76,2029.50,3343.17,2979.50,3392.10,599.83,591.21,24.12,0000 0000 0000 0000 000000
2017-08-22 02:21:08,0.06,0.42,0.00,23.92,28.27,31.20,13.85,44.80,1011.75,2029.71,3342.07,2978.87,3391.50,600.18,591.52,24.17,0000 0000 0000 0000 000000
2017-08-22 02:26:09,0.07,0.42,0.00,23.93,28.27,31.19,13.82,44.63,1011.76,2029.60,3340.22,2977.73,3390.41,599.95,591.33,24.23,0000 0000 0000 0000 000000
2017-08-22 02:31:11,0.10,0.43,0.00,23.94,28.27,31.21,13.79,44.73,1011.77,2029.61,3338.00,2976.38,3388.92,600.11,591.42,24.28,0000 0000 0000 0000 000000
2017-08-22 02:36:12,0.06,0.43,0.00,23.95,28.27,31.20,13.80,44.65,1011.75,2029.58,3336.06,2975.26,3387.63,599.92,591.24,24.33,0000 0000 0000 0000 000000
2017-08-22 02:41:13,0.05,0.43,0.00,23.94,28.27,31.23,13.81,44.60,1011.75,2029.38,3334.46,2974.15,3386.49,600.37,591.65,24.38,0000 0000 0000 0000 000000
2017-08-22 02:46:15,0.05,0.44,0.00,23.94,28.27,31.23,13.87,44.75,1011.75,2029.50,3333.23,2973.54,3385.91,599.90,591.17,24.43,0000 0000 0000 0000 000000
2017-08-22 02:51:16,0.02,0.44,0.00,23.95,28.27,31.22,13.87,44.74,1011.74,2029.45,3332.67,2973.03,3385.13,599.89,591.25,24.48,0000 0000 0000 0000 000000
2017-08-22 02:56:18,-0.00,0.44,0.00,23.95,28.27,31.23,13.90,44.77,1011.75,2029.27,3331.97,2972.92,3384.93,600.15,591.43,24.53,0000 0000 0000 0000 000000
2017-08-22 03:01:19,0.05,0.44,0.00,23.95,28.29,31.24,13.84,44.81,1011.76,2029.24,3331.13,2972.15,3384.19,599.69,591.06,24.58,0000 0000 0000 0000 000000
2017-08-22 03:06:20,0.04,0.44,0.00,23.97,28.30,31.25,13.85,44.79,1011.76,2029.31,3330.23,2971.99,3383.95,600.28,591.53,24.63,0000 0000 0000 0000 000000
2017-08-22 03:11:22,0.02,0.44,0.00,23.97,28.30,31.23,13.91,44.87,1011.75,2029.68,3329.99,2971.96,3383.62,600.26,591.50,24.68,0000 0000 0000 0000 000000
2017-08-22 03:16:23,0.02,0.44,0.00,23.97,28.30,31.25,13.80,44.69,1011.74,2029.56,3329.49,2971.52,3383.05,600.01,591.34,24.73,0000 0000 0000 0000 000000
2017-08-22 03:21:23,0.00,0.44,0.00,23.97,28.30,31.26,13.83,44.87,1011.74,2029.45,3329.03,2971.09,3383.00,599.92,591.09,24.78,0000 0000 0000 0000 000000
2017-08-22 03:26:25,-0.01,0.44,0.00,23.99,28.30,31.26,13.80,44.90,1011.74,2029.26,3328.99,2971.00,3382.86,600.15,591.42,24.83,0000 0000 0000 0000 000000
2017-08-22 03:31:26,0.01,0.44,0.00,24.00,28.30,31.27,13.78,44.81,1011.73,2029.11,3328.81,2971.00,3382.15,599.88,591.25,24.88,0000 0000 0000 0000 000000
2017-08-22 03:36:27,0.00,0.44,0.00,24.00,28.30,31.26,13.80,44.84,1011.73,2029.04,3328.12,2970.92,3382.00,599.96,591.04,24.93,0000 0000 0000 0000 000000
2017-08-22 03:41:29,0.02,0.45,0.00,24.00,28.30,31.25,13.86,44.82,1011.73,2029.08,3328.00,2970.37,3381.99,600.11,591.28,24.98,0000 0000 0000 0000 000000
2017-08-22 03:46:30,0.02,0.45,0.00,24.02,28.32,31.26,13.78,44.86,1011.73,2029.04,3327.56,2970.03,3381.50,600.13,591.45,25.03,0000 0000 0000 0000 000000
2017-08-22 03:51:31,0.01,0.45,0.00,24.02,28.32,31.26,13.81,44.85,1011.73,2029.03,3327.03,2970.00,3381.01,599.82,590.95,25.08,0000 0000 0000 0000 000000
2017-08-22 03:56:32,0.01,0.45,0.00,24.03,28.32,31.26,13.86,44.86,1011.73,2029.05,3326.79,2969.92,3380.90,599.95,591.06,25.13,0000 0000 0000 0000 000000
2017-08-22 04:01:33,0.03,0.45,0.00,24.04,28.32,31.26,13.87,44.95,1011.73,2029.01,3326.06,2969.29,3380.14,600.22,591.17,25.18,0000 0000 0000 0000 000000
2017-08-22 04:06:35,0.00,0.45,0.00,24.05,28.32,31.28,13.74,44.86,1011.73,2029.01,3325.96,2969.01,3380.00,599.71,590.88,25.23,0000 0000 0000 0000 000000
2017-08-22 04:11:36,0.01,0.45,0.00,24.05,28.32,31.27,13.80,44.92,1011.72,2029.02,3325.33,2969.00,3379.82,599.86,591.04,25.28,0000 0000 0000 0000 000000
2017-08-22 04:16:37,0.01,0.45,0.00,24.06,28.32,31.30,13.80,44.83,1011.70,2029.00,3325.00,2968.97,3379.10,600.07,591.17,25.33,0000 0000 0000 0000 000000
2017-08-22 04:21:38,0.01,0.45,0.00,24.07,28.33,31.30,13.83,44.77,1011.72,2029.02,3324.90,2968.87,3379.00,600.19,591.26,25.38,0000 0000 0000 0000 000000
2017-08-22 04:26:39,0.03,0.45,0.00,24.07,28.34,31.30,13.77,44.84,1011.70,2029.00,3324.13,2968.18,3378.95,599.85,590.83,25.43,0000 0000 0000 0000 000000
2017-08-22 04:31:41,0.01,0.45,0.00,24.07,28.35,31.30,13.79,44.80,1011.63,2029.00,3323.98,2968.00,3378.27,600.04,591.01,25.48,0000 0000 0000 0000 000000
2017-08-22 04:36:42,0.01,0.45,0.00,24.09,28.35,31.31,13.89,44.86,1011.43,2029.00,3323.55,2968.00,3378.00,600.21,591.13,25.53,0000 0000 0000 0000 000000
2017-08-22 04:41:43,0.00,0.46,0.00,24.10,28.35,31.31,13.87,44.88,1011.37,2029.00,3323.03,2967.94,3377.99,599.87,590.66,25.58,0000 0000 0000 0000 000000
2017-08-22 04:46:45,0.01,0.46,0.00,24.10,28.35,31.33,13.85,44.79,1011.35,2029.00,3322.98,2967.75,3377.72,600.37,591.18,25.63,0000 0000 0000 0000 000000
2017-08-22 04:51:46,0.02,0.46,0.00,24.11,28.37,31.33,13.83,44.72,1011.38,2029.00,3322.66,2967.27,3377.15,600.08,590.82,25.68,0000 0000 0000 0000 000000
2017-08-22 04:56:47,0.01,0.46,0.00,24.12,28.37,31.34,13.80,44.88,1011.36,2029.00,3322.04,2967.02,3377.00,599.97,590.73,25.73,0000 0000 0000 0000 000000
2017-08-22 05:01:49,0.00,0.46,0.00,24.13,28.37,31.32,13.79,44.83,1011.37,2029.00,3321.97,2967.00,3376.95,599.69,590.44,25.78,0000 0000 0000 0000 000000
2017-08-22 05:06:50,0.01,0.46,0.00,24.14,28.37,31.35,13.75,44.74,1011.38,2029.00,3321.71,2966.96,3376.67,599.89,590.54,25.83,0000 0000 0000 0000 000000
2017-08-22 05:11:51,0.03,0.46,0.00,24.15,28.39,31.36,13.84,44.67,1011.43,2029.00,3321.07,2966.62,3376.06,600.03,590.73,25.88,0000 0000 0000 0000 000000
2017-08-22 05:16:52,0.01,0.46,0.00,24.15,28.40,31.34,13.80,44.84,1011.65,2029.00,3321.00,2966.09,3376.00,600.15,590.94,25.93,0000 0000 0000 0000 000000
2017-08-22 05:21:53,0.01,0.46,0.00,24.15,28.40,31.36,13.83,44.82,1011.66,2028.99,3320.75,2966.02,3375.95,600.04,590.98,25.98,0000 0000 0000 0000 000000
2017-08-22 05:26:55,0.01,0.46,0.00,24.16,28.40,31.38,13.82,44.74,1011.71,2028.99,3320.15,2966.00,3375.64,600.28,591.24,26.03,0000 0000 0000 0000 000000
2017-08-22 05:31:56,0.00,0.46,0.00,24.17,28.40,31.38,13.75,44.82,1011.70,2028.97,3320.00,2965.99,3375.04,599.81,590.67,26.08,0000 0000 0000 0000 000000
2017-08-22 05:36:57,0.00,0.46,0.00,24.17,28.42,31.38,13.88,44.81,1011.72,2028.98,3319.94,2965.84,3375.00,600.37,591.14,26.13,0000 0000 0000 0000 000000
2017-08-22 05:41:59,0.02,0.46,0.00,24.17,28.42,31.41,13.84,44.96,1011.70,2028.97,3319.54,2965.45,3374.97,600.14,590.92,26.18,0000 0000 0000 0000 000000
2017-08-22 05:47:00,0.02,0.47,0.00,24.18,28.42,31.41,13.78,44.83,1011.65,2028.96,3319.10,2965.09,3374.69,599.76,590.43,26.23,0000 0000 0000 0000 000000
2017-08-22 05:52:01,0.00,0.47,0.00,24.19,28.43,31.40,13.78,44.75,1011.63,2028.94,3318.99,2965.00,3374.08,599.71,590.47,26.28,0000 0000 0000 0000 000000
2017-08-22 05:57:03,0.00,0.47,0.00,24.20,28.44,31.42,13.77,44.76,1011.65,2028.95,3318.94,2965.00,3374.01,599.86,590.62,26.33,0000 0000 0000 0000 000000
2017-08-22 06:02:04,0.01,0.47,0.00,24.19,28.45,31.41,13.77,44.67,1011.65,2028.95,3318.54,2965.00,3374.00,600.07,590.85,26.38,0000 0000 0000 0000 000000
2017-08-22 06:07:05,0.00,0.47,0.00,24.19,28.45,31.42,13.73,44.75,1011.60,2028.95,3318.06,2964.97,3373.97,599.72,590.45,26.43,0000 0000 0000 0000 000000
2017-08-22 06:12:07,0.01,0.47,0.00,24.19,28.45,31.42,13.79,44.68,1011.47,2028.85,3317.98,2964.67,3373.46,599.79,590.44,26.48,0000 0000 0000 0000 000000
2017-08-22 06:17:08,0.02,0.47,0.00,24.20,28.45,31.43,13.83,44.75,1011.44,2028.81,3317.56,2964.17,3373.04,599.98,590.59,26.53,0000 0000 0000 0000 000000
2017-08-22 06:22:09,-0.00,0.47,0.00,24.19,28.47,31.42,13.83,44.73,1011.35,2028.71,3317.03,2964.02,3373.00,599.83,590.33,26.58,0000 0000 0000 0000 000000
2017-08-22 06:27:11,0.19,0.47,0.00,24.19,28.47,31.45,13.84,44.82,1011.28,2028.61,3314.59,2962.66,3371.36,600.07,590.60,26.63,0000 0000 0000 0000 000000
2017-08-22 06:32:12,0.26,0.49,0.00,24.20,28.47,31.44,13.76,44.67,1011.27,2028.56,3306.16,2958.10,3366.04,599.68,590.11,26.68,0000 0000 0000 0000 000000
2017-08-22 06:37:13,0.02,0.49,0.00,24.20,28.47,31.45,13.74,44.83,1011.26,2028.50,3305.15,2957.47,3365.17,599.75,590.19,26.73,0000 0000 0000 0000 000000
2017-08-22 06:42:15,0.03,0.49,0.00,24.21,28.47,31.47,13.81,44.78,1011.26,2028.37,3304.33,2957.03,3364.59,600.00,590.48,26.78,0000 0000 0000 0000 000000
2017-08-22 06:47:16,0.00,0.49,0.00,24.21,28.48,31.44,13.82,44.74,1011.26,2028.30,3303.99,2956.86,3364.06,599.90,590.38,26.83,0000 0000 0000 0000 000000
2017-08-22 06:52:17,0.01,0.49,0.00,24.20,28.49,31.45,13.87,44.82,1011.26,2028.14,3303.52,2956.25,3364.00,600.19,590.61,26.88,0000 0000 0000 0000 000000
2017-08-22 06:57:18,0.01,0.50,0.00,24.21,28.50,31.46,13.78,44.73,1011.26,2028.09,3303.02,2956.01,3363.98,599.81,590.28,26.93,0000 0000 0000 0000 000000
2017-08-22 07:02:20,0.00,0.50,0.00,24.21,28.50,31.47,13.84,44.85,1011.26,2028.10,3302.99,2956.00,3363.74,600.06,590.45,26.98,0000 0000 0000 0000 000000
2017-08-22 07:07:21,0.02,0.50,0.00,24.22,28.50,31.45,13.80,44.87,1011.27,2028.09,3302.64,2955.99,3363.10,599.89,590.35,27.03,0000 0000 0000 0000 000000
2017-08-22 07:12:22,0.01,0.50,0.00,24.22,28.50,31.47,13.79,44.70,1011.28,2028.07,3302.06,2955.91,3363.00,599.92,590.38,27.08,0000 0000 0000 0000 000000
2017-08-22 07:17:24,0.01,0.50,0.00,24.22,28.50,31.47,13.80,44.79,1011.27,2028.03,3301.98,2955.48,3362.97,599.83,590.21,27.13,0000 0000 0000 0000 000000
2017-08-22 07:22:25,0.02,0.50,0.00,24.21,28.50,31.46,13.80,44.71,1011.26,2028.01,3301.51,2955.07,3362.54,600.01,590.56,27.18,0000 0000 0000 0000 000000
2017-08-22 07:27:26,0.01,0.50,0.00,24.20,28.50,31.48,13.79,44.81,1011.31,2028.04,3301.03,2955.01,3362.07,599.79,590.31,27.23,0000 0000 0000 0000 000000
2017-08-22 07:32:27,0.00,0.50,0.00,24.21,28.50,31.46,13.77,44.86,1011.39,2028.02,3300.95,2955.00,3362.00,599.83,590.35,27.28,0000 0000 0000 0000 000000
2017-08-22 07:37:29,-0.00,0.50,0.00,24.22,28.51,31.48,13.82,44.93,1011.30,2028.02,3300.82,2955.00,3362.00,599.88,590.28,27.33,0000 0000 0000 0000 000000
2017-08-22 07:42:30,0.01,0.50,0.00,24.21,28.52,31.49,13.81,44.82,1011.30,2028.01,3300.18,2954.95,3361.78,599.99,590.49,27.38,0000 0000 0000 0000 000000
2017-08-22 07:47:31,0.01,0.50,0.00,24.20,28.52,31.47,13.85,44.84,1011.36,2028.01,3300.00,2954.81,3361.27,599.92,590.50,27.43,0000 0000 0000 0000 000000
2017-08-22 07:52:33,0.02,0.50,0.00,24.20,28.52,31.48,13.87,44.81,1011.52,2028.01,3299.99,2954.29,3361.03,600.01,590.73,27.48,0000 0000 0000 0000 000000
2017-08-22 07:57:34,0.00,0.50,0.00,24.21,28.52,31.49,13.83,44.81,1011.59,2028.00,3299.93,2954.14,3361.00,599.93,590.42,27.53,0000 0000 0000 0000 000000
2017-08-22 08:02:36,0.01,0.50,0.00,24.20,28.52,31.48,13.92,44.84,1011.54,2028.01,3299.50,2954.04,3361.00,600.18,590.82,27.58,0000 0000 0000 0000 000000
2017-08-22 08:07:37,0.01,0.50,0.00,24.20,28.52,31.48,13.80,44.84,1011.60,2028.01,3299.04,2954.00,3360.96,599.99,590.71,27.63,0000 0000 0000 0000 000000
2017-08-22 08:12:38,0.00,0.50,0.00,24.20,28.52,31.48,13.80,44.77,1011.65,2028.01,3299.00,2954.00,3360.60,599.72,590.40,27.68,0000 0000 0000 0000 000000
2017-08-22 08:17:39,0.01,0.50,0.00,24.20,28.52,31.48,13.76,44.84,1011.64,2028.01,3298.97,2954.00,3360.09,599.98,590.72,27.73,0000 0000 0000 0000 000000
2017-08-22 08:22:41,0.00,0.50,0.00,24.20,28.52,31.50,13.76,44.92,1011.58,2028.01,3298.81,2953.99,3360.04,599.59,590.29,27.78,0000 0000 0000 0000 000000
2017-08-22 08:27:43,0.00,0.50,0.00,24.20,28.52,31.47,13.77,44.78,1011.36,2028.00,3298.32,2953.97,3360.00,599.80,590.34,27.83,0000 0000 0000 0000 000000
2017-08-22 08:32:44,0.00,0.51,0.00,24.19,28.52,31.48,13.89,44.98,1011.39,2028.01,3298.02,2953.97,3359.99,600.42,590.88,27.88,0000 0000 0000 0000 000000
2017-08-22 08:37:45,0.00,0.51,0.00,24.20,28.52,31.47,13.84,44.85,1011.36,2028.02,3298.00,2953.97,3359.99,600.14,590.67,27.93,0000 0000 0000 0000 000000
2017-08-22 08:42:47,-0.00,0.51,0.00,24.20,28.52,31.48,13.81,44.92,1011.29,2028.02,3298.00,2953.94,3359.98,599.74,590.26,27.98,0000 0000 0000 0000 000000
2017-08-22 08:47:48,-0.00,0.51,0.00,24.20,28.52,31.49,13.85,44.92,1011.30,2028.03,3297.99,2953.89,3359.98,599.84,590.43,28.04,0000 0000 0000 0000 000000
2017-08-22 08:52:49,-0.00,0.51,0.00,24.20,28.52,31.48,13.77,44.87,1011.28,2028.02,3297.99,2953.87,3359.97,599.98,590.45,28.09,0000 0000 0000 0000 000000
2017-08-22 08:57:50,0.01,0.51,0.00,24.19,28.52,31.48,13.80,44.93,1011.27,2028.03,3297.98,2953.75,3359.90,599.89,590.42,28.14,0000 0000 0000 0000 000000
2017-08-22 09:02:52,0.00,0.51,0.00,24.19,28.52,31.48,13.80,44.88,1011.26,2028.03,3297.98,2953.64,3359.79,600.32,590.82,28.19,0000 0000 0000 0000 000000
2017-08-22 09:07:53,0.01,0.51,0.00,24.18,28.52,31.49,13.83,44.84,1011.25,2028.04,3297.97,2953.60,3359.84,599.87,590.45,28.24,0000 0000 0000 0000 000000
2017-08-22 09:12:55,-0.00,0.51,0.00,24.17,28.52,31.49,13.80,44.86,1011.25,2028.05,3297.97,2953.63,3359.80,599.73,590.36,28.29,0000 0000 0000 0000 000000
2017-08-22 09:17:56,0.00,0.51,0.00,24.17,28.52,31.48,13.79,44.99,1011.25,2028.05,3297.99,2953.58,3359.73,600.11,590.67,28.34,0000 0000 0000 0000 000000
2017-08-22 09:22:57,0.02,0.51,0.00,24.18,28.51,31.47,13.77,44.95,1011.25,2028.06,3297.90,2953.28,3359.35,599.98,590.59,28.39,0000 0000 0000 0000 000000
2017-08-22 09:27:59,0.01,0.51,0.00,24.17,28.51,31.47,13.80,44.92,1011.25,2028.04,3297.32,2953.07,3359.04,600.10,590.70,28.44,0000 0000 0000 0000 000000
2017-08-22 09:33:00,0.00,0.51,0.00,24.17,28.50,31.47,13.82,44.93,1011.25,2028.03,3297.11,2953.01,3359.01,599.63,590.22,28.49,0000 0000 0000 0000 000000
2017-08-22 09:38:01,0.00,0.51,0.00,24.16,28.50,31.46,13.87,44.92,1011.24,2028.01,3297.05,2953.00,3359.00,600.08,590.61,28.54,0000 0000 0000 0000 000000
2017-08-22 09:43:02,-0.00,0.51,0.00,24.15,28.50,31.46,13.82,44.88,1011.24,2028.01,3297.01,2953.00,3359.00,599.82,590.36,28.59,0000 0000 0000 0000 000000
2017-08-22 09:48:04,0.00,0.51,0.00,24.15,28.50,31.45,13.84,44.83,1011.24,2028.03,3297.00,2953.00,3358.98,600.21,590.79,28.64,0000 0000 0000 0000 000000
2017-08-22 09:53:05,0.00,0.51,0.00,24.14,28.50,31.46,13.79,44.83,1011.24,2028.04,3296.98,2953.00,3358.97,599.74,590.35,28.69,0000 0000 0000 0000 000000
2017-08-22 09:58:06,0.00,0.51,0.00,24.13,28.50,31.46,13.77,44.81,1011.23,2028.03,3296.94,2953.00,3358.92,599.35,589.98,28.74,0000 0000 0000 0000 000000
2017-08-22 10:03:07,0.00,0.51,0.00,24.13,28.50,31.46,13.79,44.78,1011.24,2028.03,3296.85,2952.99,3358.75,599.83,590.46,28.79,0000 0000 0000 0000 000000
2017-08-22 10:08:09,0.01,0.51,0.00,24.12,28.50,31.45,13.83,44.77,1011.24,2028.08,3296.90,2952.98,3358.81,600.14,590.83,28.84,0000 0000 0000 0000 000000
2017-08-22 10:13:10,0.01,0.51,0.00,24.12,28.50,31.46,13.83,44.91,1011.23,2028.03,3296.49,2952.97,3358.42,600.05,590.69,28.89,0000 0000 0000 0000 000000
2017-08-22 10:18:12,0.02,0.51,0.00,24.12,28.49,31.46,13.82,44.96,1011.22,2028.11,3296.12,2952.96,3358.16,600.18,590.91,28.94,0000 0000 0000 0000 000000
2017-08-22 10:23:13,-0.00,0.51,0.00,24.11,28.47,31.44,13.81,44.81,1011.22,2028.17,3296.06,2952.97,3358.11,600.24,591.09,28.99,0000 0000 0000 0000 000000
2017-08-22 10:28:14,-0.01,0.51,0.00,24.10,28.47,31.43,13.80,44.94,1011.17,2028.09,3296.04,2952.92,3358.04,599.85,590.51,29.04,0000 0000 0000 0000 000000
2017-08-22 10:33:15,-0.00,0.51,0.00,24.10,28.47,31.42,13.76,44.78,1011.18,2028.06,3296.00,2952.87,3358.01,599.95,590.64,29.09,0000 0000 0000 0000 000000
2017-08-22 10:38:16,0.00,0.51,0.00,24.08,28.47,31.44,13.87,44.91,1011.10,2028.07,3296.00,2952.76,3358.01,600.17,590.98,29.14,0000 0000 0000 0000 000000
2017-08-22 10:43:17,0.01,0.51,0.00,24.07,28.47,31.43,13.91,44.92,1010.84,2028.08,3296.00,2952.60,3358.00,600.47,590.90,29.19,0000 0000 0000 0000 000000
2017-08-22 10:48:19,-0.01,0.51,0.00,24.07,28.47,31.43,13.75,44.85,1010.78,2028.07,3296.00,2952.63,3358.00,599.81,590.33,29.24,0000 0000 0000 0000 000000
2017-08-22 10:53:20,0.00,0.51,0.00,24.07,28.45,31.42,13.77,44.77,1010.78,2028.08,3296.00,2952.59,3358.00,600.14,590.62,29.29,0000 0000 0000 0000 000000
2017-08-22 10:58:21,0.01,0.51,0.00,24.07,28.45,31.41,13.82,44.79,1010.77,2028.12,3296.00,2952.49,3358.00,600.04,590.52,29.34,0000 0000 0000 0000 000000
2017-08-22 11:03:22,-0.01,0.51,0.00,24.05,28.45,31.40,13.83,44.77,1010.76,2028.21,3296.00,2952.71,3358.01,600.04,590.50,29.39,0000 0000 0000 0000 000000
2017-08-22 11:08:23,0.02,0.51,0.00,24.05,28.45,31.40,13.73,44.86,1010.76,2028.26,3296.00,2952.64,3358.00,599.81,590.42,29.44,0000 0000 0000 0000 000000
2017-08-22 11:13:24,-0.01,0.51,0.00,24.04,28.45,31.39,13.88,45.00,1010.73,2028.28,3296.00,2952.73,3358.00,599.98,590.47,29.49,0000 0000 0000 0000 000000
2017-08-22 11:18:25,0.02,0.51,0.00,24.02,28.44,31.39,13.83,44.81,1010.58,2028.55,3296.00,2952.81,3358.02,599.99,590.45,29.54,0000 0000 0000 0000 000000
2017-08-22 11:23:26,0.00,0.51,0.00,24.02,28.43,31.38,13.84,44.79,1010.37,2028.55,3296.00,2952.77,3358.00,600.15,590.46,29.59,0000 0000 0000 0000 000000
2017-08-22 11:28:28,0.01,0.51,0.00,24.01,28.42,31.37,13.84,44.92,1010.28,2028.62,3296.00,2952.71,3358.00,600.19,590.46,29.64,0000 0000 0000 0000 000000
2017-08-22 11:33:29,-0.00,0.51,0.00,24.02,28.42,31.36,13.75,44.83,1010.30,2028.62,3295.99,2952.64,3358.00,599.92,590.06,29.69,0000 0000 0000 0000 000000
2017-08-22 11:38:31,0.00,0.51,0.00,24.01,28.42,31.37,13.87,44.89,1010.29,2028.71,3295.99,2952.65,3358.00,599.99,590.30,29.74,0000 0000 0000 0000 000000
2017-08-22 11:43:32,0.01,0.51,0.00,24.01,28.42,31.37,13.85,44.83,1010.29,2028.84,3295.99,2952.73,3358.00,600.11,590.31,29.79,0000 0000 0000 0000 000000
2017-08-22 11:48:33,0.01,0.51,0.00,24.00,28.41,31.35,13.79,44.76,1010.27,2028.93,3295.99,2952.61,3358.00,600.13,590.42,29.84,0000 0000 0000 0000 000000
2017-08-22 11:53:34,0.00,0.51,0.00,24.00,28.40,31.35,13.84,44.75,1010.28,2028.93,3295.98,2952.55,3358.00,600.18,590.42,29.89,0000 0000 0000 0000 000000
2017-08-22 11:58:36,0.01,0.52,0.00,24.00,28.40,31.36,13.81,44.80,1010.27,2028.92,3295.90,2952.19,3357.99,600.10,590.43,29.94,0000 0000 0000 0000 000000
2017-08-22 12:03:37,0.05,0.52,0.00,23.99,28.40,31.35,13.81,44.81,1010.28,2028.96,3294.66,2952.01,3357.44,600.04,590.41,29.99,0000 0000 0000 0000 000000
2017-08-22 12:08:38,0.00,0.52,0.00,23.99,28.39,31.33,13.80,44.86,1010.27,2028.95,3294.00,2951.94,3357.00,599.48,589.72,30.04,0000 0000 0000 0000 000000
2017-08-22 12:13:40,0.00,0.52,0.00,23.97,28.38,31.33,13.87,44.84,1010.27,2028.98,3293.99,2951.93,3357.00,600.36,590.65,30.09,0000 0000 0000 0000 000000
2017-08-22 12:18:41,0.00,0.52,0.00,23.96,28.37,31.33,13.81,44.83,1010.26,2028.97,3293.94,2951.87,3356.99,599.97,590.37,30.14,0000 0000 0000 0000 000000
2017-08-22 12:23:42,0.00,0.52,0.00,23.95,28.37,31.33,13.86,44.80,1010.25,2028.98,3293.80,2951.78,3356.98,600.28,590.76,30.19,0000 0000 0000 0000 000000
2017-08-22 12:28:43,0.01,0.52,0.00,23.95,28.37,31.31,13.78,44.79,1010.21,2028.98,3293.54,2951.74,3356.97,600.02,590.47,30.24,0000 0000 0000 0000 000000
2017-08-22 12:33:45,0.01,0.52,0.00,23.94,28.37,31.31,13.85,44.94,1010.11,2028.98,3293.16,2951.47,3356.93,600.29,590.53,30.29,0000 0000 0000 0000 000000
2017-08-22 12:38:46,0.00,0.52,0.00,23.93,28.35,31.30,13.84,44.90,1009.88,2028.98,3293.04,2951.36,3356.89,600.12,590.33,30.34,0000 0000 0000 0000 000000
2017-08-22 12:43:47,-0.00,0.52,0.00,23.92,28.35,31.29,13.80,44.84,1009.80,2028.99,3293.04,2951.53,3356.92,599.84,590.00,30.39,0000 0000 0000 0000 000000
2017-08-22 12:48:48,0.00,0.52,0.00,23.92,28.35,31.29,13.90,44.95,1009.79,2028.99,3293.04,2951.54,3356.92,600.01,590.28,30.44,0000 0000 0000 0000 000000
2017-08-22 12:53:50,0.00,0.52,0.00,23.92,28.35,31.27,13.79,44.91,1009.78,2028.99,3293.00,2951.26,3356.72,599.92,590.18,30.49,0000 0000 0000 0000 000000